Kuchera_Ratio
0.0 0.0 0.0 0.0 0.0 0.0 0.0 0.0 0.0 0.0 0.0 0.0 0.0 0.0 0.0 0.0 0.0 0.0 0.0 0.0 0.0 4.4 3.0 0.0 0.0 2.2 2.8 3.2 7.2 4.6 5.2 4.8 6.8 10.8 9.8 10.8 10.4 8.4 8.6 8.2 9.4 11.2 12.2 12.9 12.2 14.5 16.3 6.2 3.6 12.0 11.8 6.2 6.2 7.6
0.0 0.0 0.0 0.0 0.0 0.0 0.0 0.0 0.0 0.0 0.0 0.0 0.0 0.0 0.0 0.0 0.0 0.0 0.0 0.0 0.0 0.0 3.4 0.0 0.0 0.0 0.0 0.0 3.2 5.0 4.4 5.6 4.4 10.0 10.6 8.0 10.4 8.8 8.8 13.1 4.0 12.5 7.4 10.8 10.4 12.3 7.6 5.8 7.6 6.0 5.2 6.8 8.0 8.0
0.0 0.0 0.0 0.0 0.0 0.0 0.0 0.0 0.0 0.0 0.0 0.0 0.0 0.0 0.0 0.0 0.0 0.0 0.0 0.0 0.0 0.1 1.0 0.0 0.2 0.0 0.0 0.0 0.0 3.8 4.2 1.0 3.4 2.6 6.6 8.4 11.0 8.0 12.0 10.0 8.6 5.8 3.6 9.4 10.0 8.8 9.0 7.8 5.8 4.8 4.8 7.0 6.2 6.8
0.0 0.0 0.0 0.0 0.0 0.0 0.0 0.0 0.0 0.0 0.0 0.0 0.0 0.0 0.0 0.0 0.0 0.0 0.0 0.0 0.0 1.0 5.8 3.4 0.0 0.0 0.0 0.0 0.0 0.0 0.0 0.0 1.2 2.2 5.0 7.4 8.2 4.0 7.6 6.2 6.6 5.0 4.6 10.4 10.6 9.2 9.0 8.2 7.6 7.2 6.0 5.6 6.4 7.6
0.0 0.0 0.0 0.0 0.0 0.0 0.0 0.0 0.0 0.0 0.0 0.0 0.0 0.0 0.0 0.0 0.0 0.0 0.0 0.0 0.0 0.1 7.7 5.0 0.0 0.0 0.0 0.0 0.0 0.0 0.0 0.4 2.6 5.2 7.4 8.0 4.6 5.2 5.6 5.4 10.0 4.8 9.0 11.6 12.2 8.8 8.0 9.8 8.2 6.8 8.2 8.8 8.2 9.0
0.0 0.0 0.0 0.0 0.0 0.0 0.0 0.0 0.0 0.0 0.0 0.0 0.0 0.0 0.0 0.0 0.0 0.0 1.6 0.0 0.0 0.0 2.5 8.6 2.4 0.0 0.0 0.0 0.0 0.0 0.0 1.2 1.8 3.0 7.2 6.6 4.0 4.8 10.6 11.4 7.6 5.4 4.0 3.4 8.8 7.4 7.6 8.6 8.8 8.2 9.0 11.0 10.4 10.8
0.0 0.0 0.0 0.0 0.0 0.0 0.0 0.0 0.0 0.0 0.0 0.0 0.0 0.0 0.0 0.0 0.0 3.7 6.0 0.2 0.0 0.0 3.2 9.1 7.6 1.0 0.0 0.0 2.2 0.0 0.0 0.4 0.8 4.2 5.0 4.8 4.2 3.8 11.6 13.2 6.6 5.4 4.8 4.8 4.2 6.8 11.2 10.6 12.4 9.4 10.4 11.2 11.2 12.0
0.0 0.0 0.0 0.0 0.0 0.0 0.0 0.0 0.0 0.0 0.0 0.0 0.0 0.0 0.0 0.0 0.0 1.4 0.0 0.0 0.0 2.2 4.3 12.2 10.6 4.0 0.0 4.6 5.6 2.4 1.6 0.0 3.0 4.2 4.4 5.8 5.0 6.4 12.8 8.8 6.6 5.4 6.2 8.6 10.6 8.6 11.0 12.3 12.2 12.5 11.2 11.8 13.5 14.2
0.0 0.0 0.0 0.0 0.0 0.0 0.0 0.0 0.0 0.0 0.0 0.0 0.0 0.0 0.0 1.4 5.9 1.6 0.0 0.0 0.0 2.8 10.9 12.2 12.2 12.6 0.6 6.2 4.6 4.4 3.4 8.4 5.6 8.6 6.6 6.0 10.2 12.8 10.4 7.6 7.0 6.2 6.8 11.6 11.0 11.0 11.8 13.3 14.1 13.9 13.6 13.6 14.4 15.0
0.0 0.0 0.0 0.0 0.0 0.0 0.0 0.0 0.0 0.0 0.0 0.0 0.0 4.8 12.6 6.4 0.0 0.0 0.7 4.9 5.2 4.6 6.4 11.6 7.8 9.0 4.4 8.2 10.0 8.0 6.0 10.6 13.7 9.2 6.0 10.6 9.6 13.1 11.6 8.2 9.0 8.4 6.4 7.6 12.6 14.0 13.4 14.3 14.4 14.5 14.8 14.5 14.7 15.2
0.0 0.0 0.0 0.0 0.0 0.0 0.0 0.0 0.0 0.0 0.0 2.4 8.8 11.4 3.6 0.0 3.0 7.5 12.6 12.4 10.2 12.8 10.0 9.0 7.4 8.8 4.2 10.6 12.4 9.0 10.4 8.6 14.2 10.8 11.4 12.6 12.9 13.1 12.3 12.8 12.4 12.1 12.0 11.8 10.6 9.6 9.2 11.4 13.6 14.5 15.2 15.3 15.7 16.1
0.0 0.0 0.0 0.0 0.0 0.0 0.0 0.0 0.0 1.1 2.3 3.7 3.0 0.8 3.6 7.0 12.4 13.6 14.7 12.2 12.7 13.0 10.8 11.0 9.8 6.6 6.0 6.4 8.8 9.2 10.8 10.2 13.8 8.2 12.2 14.5 12.5 13.0 13.4 13.9 13.8 13.5 13.4 13.7 12.9 13.7 13.4 13.3 13.6 14.9 15.9 16.7 17.3 18.1
0.0 0.0 0.0 0.0 0.0 0.0 0.0 0.0 0.0 0.0 0.0 1.8 5.8 12.3 13.1 13.8 16.5 17.1 18.3 14.9 14.9 12.5 10.4 10.4 11.8 7.6 7.0 5.6 8.6 8.6 12.1 13.6 8.6 12.5 13.5 12.2 12.1 12.7 13.6 14.1 14.6 13.7 14.1 14.9 15.7 15.9 16.6 17.8 17.9 18.0 19.1 19.5 19.9 20.4
0.0 0.0 0.0 0.0 0.0 0.0 0.0 0.0 0.0 0.0 0.8 11.4 13.0 16.5 16.7 18.0 16.4 15.3 13.4 13.0 12.1 11.6 12.5 12.1 12.0 10.0 10.0 12.2 12.7 13.7 12.0 8.4 15.3 16.9 14.8 10.7 10.3 12.4 13.9 14.4 15.0 15.7 16.1 16.4 16.8 17.3 17.8 18.0 18.2 18.6 18.8 19.4 20.2 20.5
0.0 0.0 0.0 0.0 0.0 0.0 0.0 0.0 0.0 0.0 7.2 12.8 13.4 17.4 16.7 15.5 14.5 12.4 12.6 12.2 11.0 8.6 10.2 10.6 10.4 8.6 12.6 12.9 11.8 13.4 15.3 17.5 15.3 15.0 11.2 9.7 10.1 12.4 13.3 14.6 15.3 15.8 16.2 16.5 17.0 17.3 17.5 17.9 18.0 18.4 19.4 20.1 20.3 20.7
0.0 0.0 0.2 0.0 0.0 0.0 0.0 0.0 0.0 4.1 10.8 13.5 13.6 16.5 16.2 15.2 15.1 13.5 12.9 10.0 8.2 7.8 9.4 7.8 12.7 13.1 13.6 13.0 12.8 14.0 15.3 16.9 13.5 11.3 9.9 9.5 10.1 12.4 13.8 14.9 15.3 16.0 16.4 16.8 17.0 17.3 17.7 17.7 18.4 19.4 19.8 20.2 20.6 20.7
0.0 5.4 0.0 0.0 0.0 0.0 0.0 0.1 3.8 10.4 12.8 13.8 15.9 13.6 12.9 14.2 14.6 14.4 12.5 9.2 6.2 9.0 9.8 9.2 13.6 14.0 12.0 12.7 14.1 12.1 14.8 11.7 9.9 9.1 10.2 10.0 10.9 12.5 14.1 15.1 15.6 16.0 16.4 16.6 16.9 17.5 17.4 18.2 19.2 19.5 19.8 20.2 20.7 20.7
6.2 0.6 0.0 0.0 1.4 1.8 4.2 7.0 10.0 12.2 13.6 14.2 14.4 14.5 14.0 13.5 13.5 12.7 11.7 8.8 8.6 7.8 8.4 11.0 9.6 13.4 15.1 15.3 14.9 12.4 9.6 8.5 9.1 9.7 10.5 11.3 12.4 13.8 14.8 15.3 15.8 16.2 16.3 16.7 17.2 17.4 17.9 18.9 19.4 19.2 19.7 20.1 20.3 20.3
1.8 1.0 0.0 0.0 0.8 5.6 9.4 9.6 8.8 13.8 14.2 14.3 14.2 14.0 12.8 13.6 11.6 10.7 11.5 11.3 8.4 7.4 8.8 12.3 13.3 13.1 12.7 11.5 9.7 6.5 6.9 7.2 8.6 10.3 11.0 12.2 13.3 14.4 15.2 15.8 16.1 16.1 16.5 17.2 17.6 17.8 18.5 19.0 17.5 17.5 17.4 18.0 18.0 17.7
0.0 0.0 0.0 0.0 0.0 8.8 11.4 11.6 8.8 12.9 14.3 14.0 14.2 14.3 14.0 13.8 12.9 12.2 12.4 12.1 10.0 9.2 12.0 13.3 12.9 8.6 6.4 3.7 3.7 4.1 4.8 6.1 8.4 10.8 11.4 12.5 13.4 14.4 15.2 15.8 16.1 16.6 16.8 16.8 17.0 17.8 18.6 18.5 17.9 17.1 16.8 17.1 17.5 17.7
0.0 0.8 0.0 1.6 6.8 6.8 11.0 12.4 12.8 12.7 13.7 14.1 13.8 13.0 14.6 13.8 14.1 14.4 14.0 11.2 12.8 13.3 13.6 10.2 7.9 5.4 4.9 4.0 4.0 3.7 4.4 5.3 5.5 8.0 7.5 12.6 13.2 14.2 15.2 16.2 15.9 16.1 16.7 17.1 17.9 18.6 19.2 17.4 16.2 16.2 17.3 17.5 17.8 17.6
5.8 0.2 5.5 5.2 10.4 8.0 10.0 10.4 12.4 12.7 13.6 13.5 13.5 13.0 15.3 15.4 15.2 14.9 13.1 14.9 14.3 13.3 13.1 12.7 11.3 9.3 8.6 8.2 7.6 6.9 7.0 7.6 9.2 10.6 12.0 12.6 13.8 14.2 14.6 15.5 15.8 16.1 16.7 17.5 17.7 18.0 17.7 16.5 16.4 16.9 17.5 18.5 19.3 19.6
2.2 5.0 10.2 10.4 14.5 14.9 13.8 8.6 14.5 13.1 16.8 16.0 13.4 15.6 16.6 16.0 15.1 12.4 14.9 14.6 15.6 16.0 15.4 14.5 13.7 12.7 12.2 11.6 10.6 9.6 9.3 9.7 11.3 12.5 13.1 13.5 14.3 14.9 15.7 16.1 16.5 16.9 17.5 17.9 16.4 16.9 17.3 17.8 18.0 18.0 18.4 19.0 19.6 20.2
3.6 10.2 14.3 14.0 14.6 17.5 13.4 15.2 12.5 13.6 15.0 15.9 16.3 17.8 17.1 16.1 14.2 16.1 16.9 16.7 17.4 14.5 14.1 15.0 15.4 15.3 14.5 13.4 12.6 12.2 12.4 12.6 13.3 13.9 13.9 14.4 14.8 15.4 16.1 16.6 16.6 16.4 15.7 15.5 16.7 16.7 17.4 17.8 17.8 18.5 18.9 19.3 19.8 20.2
14.3 15.1 14.9 17.4 13.8 16.2 16.7 17.8 17.0 15.3 17.8 17.0 17.0 17.6 16.2 15.5 17.9 18.1 18.5 17.8 16.2 14.6 14.9 14.2 14.1 14.5 15.4 15.7 14.9 14.2 14.0 14.1 14.5 14.9 15.3 15.6 16.0 16.2 16.4 16.8 16.6 16.1 15.5 17.3 18.3 18.0 17.8 18.0 18.3 18.5 18.7 19.2 19.7 20.2
18.4 15.5 16.6 17.2 17.5 17.3 17.2 17.5 17.6 17.5 17.6 17.5 17.6 17.5 17.5 18.1 18.4 19.7 18.6 18.5 17.9 16.9 16.8 16.6 16.8 15.1 14.7 14.9 16.0 15.9 15.6 15.0 15.1 16.1 16.2 15.7 16.2 16.4 16.3 16.7 17.3 17.8 16.1 15.3 16.8 17.5 17.7 17.9 18.2 18.6 19.1 19.2 19.3 20.1
18.4 17.6 14.6 11.4 12.2 12.3 14.9 14.5 14.2 16.5 17.6 17.4 17.2 17.8 18.4 20.2 19.9 19.6 18.1 18.3 18.6 17.8 17.0 15.9 15.5 15.4 14.1 14.4 15.2 15.7 15.4 14.9 15.6 15.6 15.1 15.1 15.1 14.7 15.6 16.7 16.8 15.6 16.3 16.4 16.8 16.8 16.8 17.2 18.0 18.1 18.5 19.1 19.2 19.6
15.4 15.7 17.5 15.6 14.9 14.1 15.1 15.5 16.2 16.9 16.2 16.2 17.5 18.0 18.7 19.9 20.2 20.0 19.9 19.3 19.4 18.9 17.7 15.6 15.7 16.1 15.6 15.5 15.9 16.2 16.9 17.2 16.4 15.9 16.2 17.0 17.1 16.5 16.2 15.9 15.7 15.2 14.9 15.1 15.5 16.0 16.3 16.6 17.0 17.4 18.0 18.6 18.7 19.3
16.3 15.4 16.1 17.2 16.3 16.6 16.8 17.0 16.8 17.1 17.2 15.9 16.7 18.5 19.7 19.8 20.1 20.2 20.2 20.1 19.7 19.5 19.1 18.6 18.0 18.1 17.7 17.3 17.0 17.4 17.3 16.6 16.7 17.9 18.2 18.0 17.6 16.8 16.3 16.0 15.9 15.4 14.9 14.9 15.2 15.5 16.1 16.8 17.2 17.2 17.6 18.2 18.8 19.8
16.6 16.2 17.0 18.2 18.0 17.8 17.4 17.6 17.8 17.7 17.9 17.4 17.9 19.1 20.2 20.5 20.5 20.6 20.7 20.7 20.2 19.7 19.9 20.0 19.6 19.3 19.3 18.9 18.9 18.2 18.2 17.6 17.2 16.3 17.1 17.7 16.7 15.6 15.2 15.4 15.5 15.9 16.0 16.1 16.3 17.0 17.6 18.3 18.6 19.1 19.6 19.9 20.5 20.8
15.7 16.6 18.0 18.7 19.0 18.7 18.8 19.2 19.7 19.4 19.5 20.1 20.3 20.5 20.8 21.4 21.6 21.6 21.8 21.8 21.8 21.8 21.0 20.5 20.2 19.8 19.8 19.5 19.5 18.7 17.9 17.8 17.9 17.3 17.1 16.9 16.5 16.2 15.9 15.9 16.4 16.9 17.3 17.5 17.8 18.3 18.7 19.2 19.7 20.2 20.7 21.2 21.6 21.8
18.1 18.1 18.9 20.2 20.4 20.2 20.3 20.3 20.1 20.0 20.6 21.0 22.0 22.0 22.1 22.5 22.8 22.5 22.1 22.2 22.1 22.2 22.1 21.9 21.6 21.4 21.3 21.2 20.6 19.6 18.8 18.8 18.7 18.3 18.0 17.8 17.5 17.3 17.4 17.3 17.7 18.2 18.6 19.2 20.0 20.3 20.5 20.6 21.2 21.6 21.9 22.1 22.2 22.1
19.8 19.8 20.3 20.4 20.5 20.2 20.3 19.9 20.3 21.5 21.7 22.6 23.1 23.0 22.8 22.9 22.6 22.7 22.5 22.6 22.7 22.8 23.0 23.0 23.0 23.0 22.1 21.9 21.1 20.7 20.1 19.8 19.4 18.9 18.5 18.3 18.3 18.7 19.1 19.4 19.9 20.3 20.5 20.8 21.2 21.4 21.9 22.1 22.3 22.4 22.2 22.4 22.7 22.7